When you browse on this site, cookies collect data to enhance your experience and personalize the content and advertising you see.
Visit our Privacy Policy to learn more. By continuing to use the site, you agree to this use of cookies and data.
  • In Romania
  • List of Countries
  • For 7 days
  • Water Temperature
  • Weather Map
  • Weather Widgets
  • user-avatar
    Login

    Hourly Weather Aromatne

    Today, 24 August, Saturday

    Time Temperature Precipitation Wind Pressure Humidity
    00:00 +25°C° 0 mm 3 mps 747 mmHg 56%
    01:00 +25°C° 0 mm 3 mps 747 mmHg 59%
    02:00 +25°C° 0 mm 3 mps 747 mmHg 61%
    03:00 +24°C° 0 mm 3 mps 747 mmHg 64%
    04:00 +23°C° 0 mm 4 mps 747 mmHg 68%
    05:00 +23°C° 0 mm 4 mps 748 mmHg 71%
    06:00 +26°C° 0 mm 4 mps 748 mmHg 64%
    07:00 +28°C° 0 mm 4 mps 748 mmHg 58%
    08:00 +30°C° 0 mm 4 mps 748 mmHg 51%
    09:00 +32°C° 0 mm 4 mps 748 mmHg 46%
    10:00 +34°C° 0 mm 5 mps 749 mmHg 40%
    11:00 +36°C° 0 mm 5 mps 749 mmHg 34%
    12:00 +36°C° 0 mm 5 mps 748 mmHg 33%
    13:00 +36°C° 0 mm 5 mps 748 mmHg 32%
    14:00 +37°C° 0 mm 5 mps 748 mmHg 31%
    15:00 +36°C° 0 mm 5 mps 748 mmHg 32%
    16:00 +35°C° 0 mm 5 mps 748 mmHg 33%
    17:00 +34°C° 0 mm 4 mps 748 mmHg 34%
    18:00 +32°C° 0 mm 4 mps 748 mmHg 39%
    19:00 +29°C° 0 mm 3 mps 748 mmHg 44%
    20:00 +27°C° 0 mm 3 mps 748 mmHg 48%
    21:00 +26°C° 0 mm 3 mps 748 mmHg 50%
    22:00 +26°C° 0 mm 3 mps 748 mmHg 52%
    23:00 +26°C° 0 mm 3 mps 748 mmHg 55%

    Tomorrow, 25 August, Sunday

    Time Temperature Precipitation Wind Pressure Humidity
    00:00 +25°C° 0 mm 3 mps 748 mmHg 57%
    01:00 +25°C° 0 mm 3 mps 748 mmHg 59%
    02:00 +25°C° 0 mm 4 mps 748 mmHg 62%
    03:00 +25°C° 0 mm 4 mps 748 mmHg 64%
    04:00 +25°C° 0 mm 4 mps 748 mmHg 66%
    05:00 +25°C° 0 mm 4 mps 748 mmHg 68%
    06:00 +27°C° 0 mm 4 mps 748 mmHg 61%
    07:00 +29°C° 0 mm 5 mps 748 mmHg 53%
    08:00 +32°C° 0 mm 5 mps 749 mmHg 46%
    09:00 +33°C° 0 mm 5 mps 749 mmHg 43%
    10:00 +34°C° 0 mm 6 mps 749 mmHg 40%
    11:00 +35°C° 0 mm 6 mps 749 mmHg 38%
    12:00 +35°C° 0 mm 6 mps 749 mmHg 37%
    13:00 +35°C° 0 mm 6 mps 749 mmHg 36%
    14:00 +35°C° 0 mm 6 mps 749 mmHg 35%
    15:00 +34°C° 0 mm 5 mps 749 mmHg 37%
    16:00 +34°C° 0 mm 5 mps 749 mmHg 39%
    17:00 +33°C° 0 mm 5 mps 749 mmHg 40%
    18:00 +30°C° 0 mm 4 mps 749 mmHg 45%
    19:00 +28°C° 0 mm 3 mps 749 mmHg 49%
    20:00 +26°C° 0 mm 3 mps 749 mmHg 53%
    21:00 +25°C° 0 mm 3 mps 749 mmHg 55%
    22:00 +25°C° 0 mm 3 mps 749 mmHg 57%
    23:00 +24°C° 0 mm 3 mps 749 mmHg 59%

    Day after tomorrow, 26 August, Monday

    Time Temperature Precipitation Wind Pressure Humidity
    00:00 +24°C° 0 mm 3 mps 749 mmHg 62%
    01:00 +23°C° 0 mm 4 mps 749 mmHg 66%
    02:00 +22°C° 0 mm 4 mps 749 mmHg 69%
    03:00 +22°C° 0 mm 4 mps 749 mmHg 71%
    04:00 +22°C° 0 mm 4 mps 749 mmHg 73%
    05:00 +22°C° 0 mm 4 mps 748 mmHg 76%
    06:00 +25°C° 0 mm 4 mps 749 mmHg 67%
    07:00 +27°C° 0 mm 4 mps 749 mmHg 58%
    08:00 +30°C° 0 mm 4 mps 749 mmHg 49%
    09:00 +32°C° 0 mm 4 mps 749 mmHg 44%
    10:00 +33°C° 0 mm 5 mps 750 mmHg 40%
    11:00 +34°C° 0 mm 5 mps 750 mmHg 36%
    12:00 +34°C° 0 mm 5 mps 750 mmHg 35%
    13:00 +34°C° 0 mm 5 mps 749 mmHg 35%
    14:00 +34°C° 0 mm 5 mps 749 mmHg 35%
    15:00 +33°C° 0 mm 5 mps 749 mmHg 37%
    16:00 +32°C° 0 mm 5 mps 749 mmHg 40%
    17:00 +30°C° 0 mm 6 mps 748 mmHg 43%
    18:00 +28°C° 0 mm 5 mps 748 mmHg 49%
    19:00 +26°C° 0 mm 4 mps 749 mmHg 56%
    20:00 +24°C° 0 mm 3 mps 749 mmHg 63%
    21:00 +22°C° 0 mm 3 mps 748 mmHg 62%
    22:00 +22°C° 0 mm 3 mps 748 mmHg 62%
    23:00 +22°C° 0 mm 3 mps 748 mmHg 62%

    27 August, Tuesday

    Time Temperature Precipitation Wind Pressure Humidity
    00:00 +22°C° 0 mm 3 mps 748 mmHg 65%
    01:00 +21°C° 0 mm 3 mps 748 mmHg 69%
    02:00 +21°C° 0 mm 4 mps 748 mmHg 72%
    03:00 +21°C° 0 mm 3 mps 748 mmHg 75%
    04:00 +20°C° 0 mm 3 mps 748 mmHg 77%
    05:00 +20°C° 0 mm 3 mps 747 mmHg 80%
    06:00 +22°C° 0 mm 4 mps 748 mmHg 71%
    07:00 +25°C° 0 mm 4 mps 748 mmHg 62%
    08:00 +28°C° 0 mm 5 mps 748 mmHg 52%
    09:00 +29°C° 0 mm 5 mps 748 mmHg 47%
    10:00 +30°C° 0 mm 5 mps 748 mmHg 42%
    11:00 +32°C° 0 mm 5 mps 748 mmHg 38%
    12:00 +33°C° 0 mm 5 mps 748 mmHg 37%
    13:00 +33°C° 0 mm 5 mps 748 mmHg 36%
    14:00 +33°C° 0 mm 5 mps 748 mmHg 35%
    15:00 +32°C° 0 mm 5 mps 748 mmHg 36%
    16:00 +32°C° 0 mm 5 mps 748 mmHg 37%
    17:00 +30°C° 0 mm 5 mps 747 mmHg 38%
    18:00 +28°C° 0 mm 4 mps 748 mmHg 43%
    19:00 +25°C° 0 mm 3 mps 748 mmHg 48%
    20:00 +23°C° 0 mm 2 mps 748 mmHg 53%
    21:00 +22°C° 0 mm 3 mps 748 mmHg 54%
    22:00 +21°C° 0 mm 3 mps 748 mmHg 55%
    23:00 +21°C° 0 mm 3 mps 748 mmHg 55%

    28 August, Wednesday

    Time Temperature Precipitation Wind Pressure Humidity
    00:00 +21°C° 0 mm 3 mps 748 mmHg 56%
    01:00 +20°C° 0 mm 3 mps 748 mmHg 56%
    02:00 +20°C° 0 mm 3 mps 748 mmHg 56%
    03:00 +20°C° 0 mm 3 mps 748 mmHg 58%
    04:00 +19°C° 0 mm 3 mps 748 mmHg 59%
    05:00 +19°C° 0 mm 3 mps 748 mmHg 61%
    06:00 +21°C° 0 mm 3 mps 748 mmHg 54%
    07:00 +25°C° 0 mm 3 mps 748 mmHg 47%
    08:00 +27°C° 0 mm 4 mps 749 mmHg 40%
    09:00 +28°C° 0 mm 4 mps 749 mmHg 35%
    10:00 +30°C° 0 mm 4 mps 749 mmHg 31%
    11:00 +32°C° 0 mm 4 mps 749 mmHg 26%
    12:00 +32°C° 0 mm 4 mps 749 mmHg 25%
    13:00 +33°C° 0 mm 4 mps 749 mmHg 24%
    14:00 +33°C° 0 mm 4 mps 748 mmHg 23%
    15:00 +32°C° 0 mm 4 mps 748 mmHg 25%
    16:00 +30°C° 0 mm 4 mps 748 mmHg 28%
    17:00 +29°C° 0 mm 4 mps 748 mmHg 30%
    18:00 +26°C° 0 mm 3 mps 748 mmHg 36%
    19:00 +24°C° 0 mm 2 mps 748 mmHg 42%
    20:00 +21°C° 0 mm 2 mps 748 mmHg 48%
    21:00 +21°C° 0 mm 2 mps 748 mmHg 50%
    22:00 +20°C° 0 mm 2 mps 748 mmHg 51%
    23:00 +20°C° 0 mm 2 mps 748 mmHg 53%

    29 August, Thursday

    Time Temperature Precipitation Wind Pressure Humidity
    00:00 +20°C° 0 mm 2 mps 748 mmHg 54%
    01:00 +19°C° 0 mm 2 mps 748 mmHg 56%
    02:00 +19°C° 0 mm 2 mps 748 mmHg 57%
    03:00 +19°C° 0 mm 2 mps 748 mmHg 59%
    04:00 +18°C° 0 mm 2 mps 748 mmHg 60%
    05:00 +18°C° 0 mm 3 mps 748 mmHg 62%
    06:00 +20°C° 0 mm 3 mps 748 mmHg 55%
    07:00 +22°C° 0 mm 4 mps 748 mmHg 47%
    08:00 +25°C° 0 mm 4 mps 748 mmHg 40%
    09:00 +26°C° 0 mm 4 mps 748 mmHg 38%
    10:00 +27°C° 0 mm 5 mps 748 mmHg 35%
    11:00 +28°C° 0 mm 5 mps 748 mmHg 32%
    12:00 +28°C° 0 mm 5 mps 748 mmHg 31%
    13:00 +28°C° 0 mm 5 mps 748 mmHg 30%
    14:00 +28°C° 0 mm 5 mps 748 mmHg 28%
    15:00 +26°C° 0 mm 5 mps 748 mmHg 30%
    16:00 +25°C° 0 mm 5 mps 748 mmHg 32%
    17:00 +23°C° 0 mm 5 mps 748 mmHg 33%
    18:00 +21°C° 0 mm 5 mps 748 mmHg 39%
    19:00 +19°C° 0 mm 4 mps 748 mmHg 45%
    20:00 +16°C° 0 mm 3 mps 748 mmHg 50%
    21:00 +16°C° 0 mm 3 mps 748 mmHg 50%
    22:00 +16°C° 0 mm 3 mps 748 mmHg 50%
    23:00 +16°C° 0 mm 3 mps 748 mmHg 50%
    Show more